EUTELSAT 7A

Last updated on Mon Nov 03 2025 00:02:55 GMT+0000 (Coordinated Universal Time)

1 28187U 04008A 25306.42664375 .00000118 00000+0 00000+0 0 9999 2 28187 5.2513 74.7036 0001198 175.7157 165.9447 1.00273195 79070
UTC large
Height (km)
Speed (km/s)
/
Latitude / Longitude
Inclination (degrees)
Orbital Period (minutes)
Azimuth
Elevation
Range (km)
Doppler Factor

Next 0 passes for location: London (51.5072 / 0.1276)

Sorry there are no passes over London.